Regional Weather Roundup
Issued by NWS Sioux Falls, SD

Home | Current Version | Previous Version | Graphics & Text | Print | Product List | Glossary On
Versions: 1 2 3 4 5 6 7 8 9 10 11 12 13 14 15 16 17 18 19 20 21 22 23 24 25 26 27 28 29 30 31 32 33 34 35 36 37 38 39 40 41 42 43 44 45 46 47 48 49 50
000
ASUS43 KFSD 240810
RWRFSD

WEATHER ROUNDUP FOR SE SOUTH DAKOTA/SW MINNESOTA/NW IOWA
NATIONAL WEATHER SERVICE SIOUX FALLS SD
200 AM CST WED JAN 24 2018

NOTE: "FAIR" INDICATES FEW OR NO CLOUDS BELOW 12,000 FEET WITH NO
SIGNIFICANT WEATHER AND OR OBSTRUCTIONS TO VISIBILITY.


SDZ038>040-050-052>070-240900-
SOUTHEAST SOUTH DAKOTA

CITY           SKY/WX    TMP DP  RH WIND       PRES   REMARKS
BROOKINGS      FOG       16  14  92 CALM      30.18S VSB 1/2
CHAMBERLAIN    CLEAR     19  19  98 S5        30.19S WCI  12
HURON          CLEAR     13  12  96 SW3       30.18F
MADISON        FAIR      14  14 100 CALM      30.17F
MITCHELL       CLEAR     18  15  88 SW6       30.21F WCI  10
SIOUX FALLS    FOG       20  18  92 CALM      30.20S VSB 1/4
WINNER         FAIR      27  18  69 SW7       30.20F WCI  19
YANKTON        CLEAR     16  13  88 NW3       30.22S
$$

MNZ071-072-080-081-089-090-097-098-240900-
SOUTHWEST MINNESOTA

CITY           SKY/WX    TMP DP  RH WIND       PRES   REMARKS
FAIRMONT       CLOUDY    22  20  92 W6        30.21S WCI  14
JACKSON        CLOUDY    23  21  93 NW8       30.20R WCI  14
LUVERNE        CLOUDY    21  19  93 NW3       30.21R
MARSHALL       CLOUDY    24  21  88 W6        30.21R WCI  17
MONTEVIDEO     CLOUDY    25  21  86 CALM      30.20S
PIPESTONE      CLOUDY    19  19 100 NW5       30.18R WCI  13
REDWOOD FALLS  CLOUDY    24  21  88 NW8       30.20S WCI  15
TRACY          CLOUDY    26  24  93 NW6       30.20R WCI  19
WINDOM         CLOUDY    23  10  58 NW3       30.19S HAZE
WORTHINGTON    CLOUDY    24  22  91 N10       30.19R WCI  14
$$

IAZ001>003-012>014-020>022-031-032-NEZ013-014-SDZ071-240900-
NORTHWEST IOWA

CITY           SKY/WX    TMP DP  RH WIND       PRES   REMARKS
CHEROKEE       CLOUDY    25  24  98 NW7       30.23R WCI  17
DENISON        CLOUDY    23  23 100 CALM      30.24R
ESTHERVILLE    CLOUDY    22  21  96 NW8       30.19S WCI  12
LE MARS        FOG       19  19 100 CALM      30.24R VSB 1/4
ORANGE CITY    CLOUDY    25  25 100 NW5       30.21R WCI  19
SHELDON        CLOUDY    25  25 100 N9        30.20R WCI  15
SIOUX CITY     CLOUDY    16  13  88 CALM      30.26R FOG
SPENCER        MIX PCPN  24  22  91 NW6       30.20S WCI  17
STORM LAKE     CLOUDY    23  23 100 N8        30.20S FOG     WCI  14
$$

ABBREVIATIONS USED IN REMARKS
   TC - TEMPERATURE IN CELSIUS
  WCI - WIND CHILL INDEX
   HX - HEAT INDEX
  VSB - VISIBILITY





USA.gov is the U.S. government's official web portal to all federal, state and local government web resources and services.